Precipitable_Water
0.14 0.16 0.16 0.14 0.13 0.14 0.12 0.11 0.09 0.07 0.08 0.12 0.18 0.23 0.28 0.27 0.25 0.21 0.21 0.22 0.23 0.22 0.25 0.28 0.31 0.34 0.37 0.39 0.42 0.43 0.43 0.44 0.46 0.49 0.51 0.51 0.52 0.54 0.54 0.52 0.51 0.49 0.50 0.50
0.07 0.09 0.10 0.08 0.10 0.10 0.11 0.12 0.12 0.11 0.10 0.17 0.20 0.25 0.23 0.21 0.21 0.19 0.19 0.20 0.20 0.20 0.23 0.25 0.28 0.31 0.35 0.37 0.38 0.39 0.39 0.41 0.44 0.45 0.45 0.46 0.47 0.49 0.49 0.49 0.50 0.52 0.50 0.48
0.05 0.08 0.07 0.04 0.06 0.08 0.09 0.11 0.11 0.07 0.10 0.17 0.17 0.19 0.19 0.19 0.19 0.18 0.18 0.16 0.15 0.16 0.18 0.20 0.26 0.32 0.33 0.35 0.39 0.39 0.40 0.41 0.43 0.44 0.44 0.45 0.47 0.47 0.47 0.47 0.47 0.46 0.44 0.42
0.06 0.07 0.04 0.07 0.14 0.13 0.10 0.11 0.13 0.14 0.16 0.19 0.20 0.23 0.23 0.22 0.20 0.17 0.19 0.19 0.19 0.21 0.22 0.22 0.25 0.29 0.32 0.34 0.36 0.37 0.38 0.39 0.41 0.41 0.42 0.43 0.44 0.44 0.44 0.45 0.44 0.42 0.40 0.38
0.06 0.06 0.07 0.07 0.12 0.13 0.11 0.09 0.16 0.15 0.20 0.22 0.23 0.22 0.20 0.23 0.23 0.22 0.22 0.24 0.24 0.24 0.25 0.25 0.26 0.29 0.31 0.32 0.34 0.34 0.35 0.37 0.39 0.40 0.39 0.40 0.39 0.40 0.42 0.42 0.40 0.38 0.35 0.32
0.10 0.06 0.04 0.09 0.17 0.21 0.17 0.08 0.19 0.19 0.18 0.19 0.20 0.14 0.17 0.23 0.25 0.24 0.24 0.23 0.22 0.23 0.26 0.26 0.28 0.31 0.31 0.31 0.32 0.32 0.34 0.36 0.38 0.39 0.38 0.38 0.39 0.39 0.36 0.33 0.31 0.30 0.29 0.29
0.10 0.09 0.09 0.15 0.20 0.22 0.08 0.09 0.20 0.21 0.21 0.21 0.18 0.20 0.22 0.23 0.22 0.23 0.24 0.25 0.27 0.26 0.23 0.26 0.30 0.32 0.30 0.31 0.31 0.35 0.37 0.37 0.37 0.38 0.38 0.38 0.34 0.32 0.30 0.29 0.28 0.27 0.27 0.27
0.12 0.10 0.07 0.20 0.19 0.12 0.16 0.21 0.23 0.23 0.24 0.23 0.23 0.22 0.21 0.20 0.20 0.21 0.21 0.23 0.27 0.27 0.26 0.26 0.30 0.32 0.31 0.31 0.35 0.36 0.37 0.36 0.36 0.36 0.34 0.34 0.32 0.31 0.29 0.28 0.26 0.25 0.23 0.22
0.10 0.09 0.15 0.19 0.18 0.21 0.22 0.22 0.23 0.22 0.23 0.22 0.21 0.20 0.21 0.21 0.21 0.22 0.23 0.24 0.27 0.26 0.28 0.28 0.31 0.32 0.31 0.33 0.35 0.35 0.35 0.35 0.35 0.35 0.34 0.32 0.30 0.28 0.27 0.25 0.22 0.21 0.20 0.20
0.11 0.14 0.15 0.18 0.19 0.20 0.21 0.20 0.22 0.22 0.22 0.22 0.20 0.21 0.20 0.20 0.20 0.21 0.22 0.24 0.27 0.28 0.27 0.27 0.31 0.33 0.33 0.35 0.36 0.34 0.33 0.33 0.34 0.32 0.30 0.29 0.28 0.25 0.23 0.21 0.21 0.20 0.19 0.19
0.10 0.14 0.15 0.16 0.17 0.18 0.19 0.20 0.20 0.21 0.21 0.20 0.19 0.18 0.19 0.18 0.19 0.19 0.21 0.23 0.26 0.27 0.28 0.29 0.32 0.32 0.33 0.34 0.34 0.32 0.32 0.30 0.29 0.28 0.27 0.25 0.24 0.22 0.21 0.21 0.21 0.19 0.19 0.19
0.06 0.11 0.12 0.14 0.17 0.19 0.19 0.19 0.20 0.19 0.19 0.19 0.19 0.18 0.18 0.18 0.19 0.19 0.18 0.20 0.22 0.24 0.26 0.27 0.29 0.29 0.30 0.31 0.31 0.30 0.29 0.29 0.28 0.27 0.25 0.23 0.21 0.20 0.22 0.21 0.22 0.22 0.21 0.20
0.12 0.15 0.15 0.17 0.18 0.19 0.18 0.19 0.19 0.18 0.17 0.16 0.17 0.17 0.18 0.18 0.19 0.19 0.19 0.19 0.19 0.20 0.23 0.25 0.26 0.26 0.27 0.28 0.28 0.28 0.27 0.27 0.26 0.26 0.23 0.21 0.20 0.18 0.17 0.19 0.23 0.23 0.22 0.22
0.15 0.15 0.14 0.16 0.16 0.18 0.18 0.18 0.19 0.18 0.18 0.17 0.17 0.17 0.17 0.18 0.18 0.18 0.19 0.20 0.21 0.20 0.20 0.21 0.23 0.24 0.25 0.26 0.26 0.26 0.26 0.26 0.26 0.25 0.24 0.22 0.20 0.20 0.19 0.17 0.16 0.18 0.20 0.20
0.15 0.16 0.16 0.17 0.17 0.17 0.18 0.18 0.17 0.16 0.16 0.16 0.17 0.16 0.16 0.16 0.16 0.17 0.18 0.19 0.19 0.19 0.19 0.20 0.20 0.22 0.24 0.24 0.24 0.24 0.24 0.24 0.24 0.25 0.25 0.23 0.21 0.20 0.20 0.19 0.19 0.18 0.18 0.18
0.16 0.16 0.16 0.16 0.16 0.16 0.16 0.16 0.15 0.15 0.15 0.15 0.15 0.15 0.15 0.15 0.15 0.15 0.16 0.17 0.17 0.16 0.18 0.18 0.19 0.20 0.22 0.22 0.22 0.22 0.22 0.23 0.23 0.23 0.23 0.23 0.21 0.20 0.20 0.19 0.19 0.19 0.19 0.18
0.15 0.14 0.15 0.15 0.15 0.14 0.14 0.14 0.14 0.14 0.13 0.13 0.13 0.13 0.13 0.13 0.12 0.12 0.13 0.15 0.16 0.16 0.17 0.17 0.17 0.18 0.20 0.20 0.20 0.20 0.20 0.21 0.21 0.21 0.22 0.22 0.22 0.21 0.21 0.20 0.19 0.19 0.19 0.20
0.17 0.17 0.16 0.15 0.14 0.14 0.13 0.13 0.13 0.12 0.12 0.12 0.11 0.11 0.10 0.10 0.09 0.10 0.10 0.11 0.12 0.13 0.15 0.16 0.17 0.17 0.18 0.18 0.19 0.19 0.19 0.19 0.19 0.19 0.19 0.19 0.20 0.20 0.20 0.20 0.20 0.19 0.20 0.20
0.16 0.15 0.15 0.15 0.14 0.13 0.12 0.11 0.11 0.10 0.10 0.10 0.09 0.08 0.08 0.08 0.07 0.08 0.08 0.08 0.08 0.08 0.09 0.12 0.13 0.14 0.15 0.16 0.17 0.17 0.17 0.17 0.17 0.17 0.18 0.18 0.18 0.18 0.18 0.18 0.18 0.18 0.18 0.18
0.14 0.14 0.13 0.13 0.12 0.11 0.10 0.10 0.09 0.09 0.08 0.08 0.07 0.07 0.07 0.07 0.07 0.07 0.07 0.06 0.07 0.07 0.09 0.10 0.09 0.09 0.09 0.11 0.14 0.16 0.15 0.15 0.15 0.15 0.15 0.15 0.15 0.15 0.15 0.16 0.16 0.16 0.16 0.16
0.13 0.12 0.10 0.09 0.08 0.08 0.08 0.08 0.08 0.07 0.08 0.07 0.07 0.07 0.07 0.07 0.07 0.06 0.06 0.06 0.06 0.07 0.10 0.09 0.08 0.07 0.08 0.09 0.11 0.10 0.10 0.11 0.12 0.13 0.13 0.13 0.13 0.13 0.13 0.13 0.13 0.14 0.14 0.14
0.11 0.10 0.08 0.08 0.07 0.07 0.07 0.07 0.06 0.06 0.07 0.07 0.07 0.07 0.07 0.07 0.07 0.07 0.06 0.06 0.06 0.08 0.08 0.09 0.08 0.08 0.10 0.11 0.10 0.09 0.08 0.08 0.08 0.08 0.08 0.08 0.09 0.09 0.10 0.10 0.11 0.11 0.11 0.11
0.09 0.08 0.07 0.07 0.07 0.06 0.07 0.06 0.07 0.07 0.07 0.08 0.07 0.07 0.07 0.07 0.07 0.06 0.05 0.06 0.07 0.08 0.10 0.09 0.08 0.09 0.11 0.09 0.09 0.08 0.08 0.07 0.07 0.06 0.06 0.06 0.06 0.06 0.06 0.07 0.07 0.08 0.08 0.08
0.08 0.07 0.07 0.07 0.07 0.06 0.06 0.06 0.07 0.07 0.07 0.07 0.07 0.07 0.07 0.07 0.07 0.07 0.06 0.07 0.07 0.08 0.09 0.07 0.08 0.10 0.09 0.09 0.07 0.07 0.07 0.07 0.06 0.06 0.06 0.07 0.07 0.07 0.06 0.06 0.06 0.06 0.06 0.06
0.08 0.07 0.07 0.07 0.06 0.06 0.06 0.06 0.06 0.06 0.06 0.06 0.07 0.07 0.07 0.07 0.06 0.06 0.07 0.07 0.08 0.08 0.07 0.08 0.08 0.09 0.08 0.07 0.06 0.07 0.07 0.07 0.06 0.06 0.07 0.07 0.07 0.06 0.06 0.06 0.06 0.06 0.07 0.07
0.07 0.07 0.07 0.07 0.07 0.07 0.07 0.07 0.07 0.07 0.07 0.06 0.07 0.07 0.07 0.07 0.07 0.07 0.07 0.08 0.08 0.08 0.07 0.07 0.07 0.07 0.08 0.08 0.07 0.07 0.07 0.07 0.07 0.07 0.07 0.07 0.07 0.07 0.06 0.06 0.06 0.06 0.07 0.07
0.07 0.07 0.07 0.07 0.07 0.07 0.07 0.07 0.08 0.07 0.08 0.07 0.07 0.06 0.06 0.07 0.07 0.08 0.08 0.07 0.07 0.07 0.07 0.07 0.07 0.07 0.08 0.08 0.08 0.07 0.07 0.07 0.08 0.08 0.07 0.07 0.07 0.07 0.07 0.07 0.06 0.06 0.07 0.07
Wind_Speed
16 18 18 19 19 20 21 22 22 25 25 25 27 28 30 30 31 30 29 29 30 30 31 32 33 33 33 33 34 34 34 34 35 37 37 38 38 37 37 37 37 37 38 38
18 18 19 23 24 23 23 24 28 25 31 28 28 28 29 28 28 28 30 31 31 31 32 33 33 34 34 34 34 35 34 34 35 35 36 37 38 38 38 39 39 40 39 38
20 20 21 22 22 21 22 22 22 25 28 27 27 27 28 29 30 31 31 32 32 33 34 35 36 36 36 36 35 35 35 35 35 36 37 37 37 38 38 38 38 38 38 37
20 20 20 22 20 21 23 26 27 28 29 29 28 29 29 31 31 32 34 35 36 37 37 37 37 37 37 37 37 36 36 35 36 36 36 37 37 37 36 36 36 36 36 35
19 21 26 25 24 23 23 28 29 30 31 30 30 30 30 30 32 35 36 37 39 39 38 37 37 37 37 37 37 37 36 36 35 35 34 34 35 35 34 33 33 32 32 33
20 21 24 25 25 27 27 31 29 27 29 30 31 31 33 34 36 37 38 39 39 38 38 38 37 36 35 35 35 35 34 33 32 32 31 30 30 30 30 30 31 31 31 31
24 25 29 28 28 28 26 31 30 29 30 31 31 33 35 36 37 38 39 39 39 38 38 37 35 34 33 33 32 32 31 30 29 28 27 27 27 27 28 28 28 29 29 29
24 26 31 27 27 29 30 30 30 31 31 32 33 35 36 37 38 38 39 40 41 40 39 36 35 33 33 32 30 29 29 28 28 27 27 26 26 25 26 26 26 27 27 28
25 27 29 30 28 29 30 30 31 31 32 33 35 35 37 38 39 40 41 41 40 40 38 36 35 34 33 31 29 28 28 28 28 27 27 27 26 26 26 27 27 28 28 29
27 30 29 28 28 28 28 28 30 32 33 33 34 36 37 38 38 39 39 39 38 36 35 34 33 32 32 30 29 29 28 28 28 28 28 28 28 28 28 28 28 28 29 29
30 30 28 28 27 28 28 29 29 29 30 31 32 33 34 35 34 35 34 33 33 33 32 31 30 30 29 29 29 29 28 27 28 29 29 29 29 28 29 29 28 27 27 27
29 26 25 25 26 27 27 28 28 28 29 30 30 31 32 32 32 31 30 29 27 26 24 24 24 25 25 26 27 27 27 27 28 28 28 29 28 28 28 27 27 26 26 25
25 25 26 25 25 26 27 27 27 27 27 28 28 29 29 29 28 27 26 25 23 22 22 21 21 21 23 25 26 27 27 27 28 28 28 28 28 27 27 27 26 26 26 25
25 25 25 26 26 26 26 26 26 26 27 28 28 27 26 25 25 25 25 24 23 22 20 19 20 21 23 24 26 27 27 28 28 28 28 28 28 27 27 27 26 26 26 25
24 24 24 24 25 26 26 26 27 27 28 28 28 27 26 25 25 25 25 24 23 22 21 20 19 19 21 24 26 27 28 28 28 29 29 29 29 29 29 29 29 28 28 28
23 23 23 23 24 26 26 27 27 28 28 28 28 28 28 27 27 27 27 26 24 23 22 22 21 21 23 24 26 27 28 29 29 30 31 31 31 31 31 31 31 31 31 30
22 24 24 25 25 26 27 28 29 30 31 31 31 31 30 31 30 29 28 28 27 25 25 25 24 24 25 25 26 28 29 29 29 30 31 33 34 34 34 34 34 34 34 34
22 23 24 26 27 29 30 31 32 32 33 33 33 32 32 31 31 30 30 29 29 29 29 29 28 27 27 27 28 28 29 30 31 32 33 34 35 36 37 37 38 38 37 37
24 26 27 29 31 32 33 34 34 34 34 33 32 31 31 30 30 29 29 28 28 29 29 29 29 29 30 30 30 31 31 31 31 32 32 33 33 34 35 36 37 38 39 40
29 30 31 33 33 34 35 36 35 34 33 31 30 29 28 28 28 28 28 28 28 28 28 27 28 29 30 30 31 31 32 32 32 32 33 33 34 35 36 37 38 39 40 41
32 34 35 35 36 35 35 34 32 32 31 29 28 28 27 27 27 27 27 27 27 27 26 27 27 27 28 30 30 30 31 33 34 35 36 37 38 39 40 41 42 42 43 43
35 35 35 34 33 33 33 32 31 30 29 28 27 27 27 27 26 26 26 25 25 26 25 26 26 27 28 26 27 29 30 31 33 35 37 39 41 42 43 44 45 46 46 47
34 33 32 32 31 31 30 29 28 27 26 26 26 26 25 25 24 23 24 23 23 23 23 24 25 26 25 25 27 28 30 31 33 35 36 38 39 40 41 42 44 45 46 47
31 30 30 29 28 28 27 26 26 26 26 26 26 25 24 23 23 22 22 22 22 22 22 23 22 23 22 24 26 27 29 30 32 33 34 35 36 37 38 40 41 42 43 44
29 28 27 26 26 25 25 25 25 25 24 24 23 22 22 22 21 21 20 21 21 21 21 22 23 24 25 26 26 27 28 29 30 31 32 33 34 35 35 36 37 38 39 40
26 25 25 25 24 24 24 24 23 23 22 22 22 21 21 21 20 20 20 20 20 21 21 22 23 23 24 24 26 26 27 28 28 29 30 31 32 33 33 34 34 35 36 36
25 25 24 24 24 24 23 23 22 22 22 21 21 21 20 20 20 20 20 21 21 21 22 22 23 23 23 23 24 25 26 26 27 28 28 29 29 29 30 31 31 32 32 32
Wind_Direction
275 275 274 272 270 268 266 270 269 280 273 275 271 270 274 277 279 280 280 280 280 280 279 276 274 271 269 267 265 263 262 260 258 256 254 252 251 251 251 250 251 251 254 256
280 283 277 276 273 272 274 276 278 280 280 279 281 277 277 274 275 276 278 280 281 281 280 279 276 273 271 268 266 264 262 261 258 256 254 253 252 252 252 251 252 254 255 255
279 286 287 286 276 274 276 276 274 277 281 281 280 277 275 275 276 277 278 279 282 282 281 280 276 273 270 268 266 264 262 261 259 257 255 254 253 253 252 251 252 252 252 252
280 289 285 280 281 280 278 281 282 283 283 282 281 279 279 278 277 278 278 281 282 283 283 281 278 274 270 267 265 263 261 261 259 257 255 253 252 252 251 250 249 248 249 249
281 280 286 286 284 283 284 287 286 285 285 283 283 282 282 281 280 281 281 283 284 284 282 281 278 274 270 267 264 262 261 259 257 255 253 251 250 249 247 246 245 245 246 247
283 280 280 283 288 288 289 288 292 287 287 286 286 284 281 285 285 285 284 284 284 283 282 281 277 273 269 266 263 261 259 256 253 251 250 248 246 244 243 243 243 244 245 247
279 281 285 284 286 287 289 288 291 291 289 288 287 284 285 287 287 286 285 284 283 283 284 279 275 271 267 265 262 259 255 250 247 246 245 245 243 242 241 241 242 244 246 247
281 280 285 289 289 285 288 290 291 292 290 289 288 289 289 290 290 289 288 286 283 282 281 278 273 267 265 263 259 254 249 245 242 241 242 242 241 240 239 241 243 245 247 250
276 282 288 291 288 291 291 288 290 290 291 290 290 290 292 292 292 291 290 288 285 281 278 276 270 264 262 259 253 248 244 241 239 240 240 241 240 241 242 245 247 249 251 253
286 284 284 284 287 290 291 291 291 292 292 293 292 293 293 294 294 294 292 290 287 282 278 274 268 263 258 253 248 244 242 240 240 239 240 241 243 245 246 247 249 250 253 255
284 285 283 284 287 290 291 293 294 295 295 296 296 296 296 295 296 296 296 294 291 284 279 274 267 261 255 249 243 240 240 240 241 242 244 245 245 245 247 249 249 250 252 253
281 282 281 285 286 291 292 294 295 296 296 298 299 298 298 297 297 297 297 296 294 291 285 278 268 259 251 245 240 237 240 243 244 244 244 244 244 247 246 245 247 249 250 249
280 281 283 284 288 291 292 294 295 296 297 297 300 299 299 298 297 298 297 297 296 293 287 279 270 260 251 243 238 239 245 247 247 245 244 243 243 243 243 244 246 248 248 247
282 282 283 286 286 290 292 293 294 295 296 297 298 300 299 298 297 299 297 292 291 292 290 283 272 259 252 246 240 244 248 250 248 245 244 242 242 242 243 244 246 247 247 248
285 286 285 285 287 290 293 294 294 296 297 298 297 297 297 298 298 297 296 294 289 286 284 281 277 265 255 248 248 249 251 251 249 246 244 243 243 243 244 246 248 248 249 247
285 287 288 288 290 292 293 294 294 295 295 295 295 294 293 294 294 294 292 290 287 283 282 279 274 269 261 256 254 253 253 252 251 248 245 244 245 246 248 248 248 248 249 249
285 287 287 289 291 293 294 294 294 293 293 292 291 290 290 291 291 291 289 287 283 280 278 276 276 271 265 262 259 257 255 254 252 250 249 248 248 249 249 250 250 250 251 252
288 288 289 289 290 292 293 294 294 294 293 292 290 289 289 289 288 288 287 284 282 279 277 274 273 270 267 264 262 259 256 255 255 254 253 252 252 252 253 252 252 252 252 254
292 292 292 291 292 292 292 293 294 293 293 291 290 289 288 287 287 287 286 284 282 280 278 274 274 271 268 266 264 260 258 257 257 256 255 255 254 253 253 253 253 254 255 256
293 293 294 294 294 293 293 293 293 292 291 290 289 289 288 288 287 288 287 284 282 280 278 275 274 272 269 266 264 261 260 259 257 257 256 256 255 255 255 256 256 257 258 259
294 295 295 295 295 294 293 293 292 291 290 289 288 288 287 287 287 288 287 285 283 280 279 277 276 274 272 270 265 263 261 260 259 259 259 259 259 259 259 259 259 260 260 261
295 295 295 295 295 294 294 293 292 291 288 287 288 288 287 287 288 288 288 285 284 283 281 279 277 277 276 266 267 267 266 264 264 263 263 262 262 261 262 261 261 261 262 262
296 295 295 295 295 295 295 294 293 290 288 287 289 289 288 287 287 287 288 288 286 284 283 283 281 279 275 272 272 271 269 268 268 267 267 266 265 264 264 263 263 263 263 263
296 296 295 296 296 296 295 294 293 292 289 289 289 288 287 287 287 288 288 288 289 287 287 286 283 283 276 279 278 276 275 273 272 270 269 268 267 266 266 266 265 265 265 265
295 295 295 296 296 296 296 296 294 293 291 290 288 287 286 287 286 288 289 289 289 290 289 288 287 285 284 283 281 280 280 278 276 274 272 270 269 269 268 268 267 267 267 267
295 294 295 295 296 297 297 297 296 294 292 290 288 287 286 285 285 288 289 290 290 291 292 292 292 289 287 285 285 284 283 282 279 277 276 274 272 271 270 269 269 268 268 268
295 294 295 295 295 296 296 296 296 295 294 291 289 287 284 284 286 287 289 291 291 292 294 295 295 293 291 290 289 289 287 286 283 281 279 277 274 273 272 271 270 269 268 268